Location: Unspecified
(0.0000°N, 0.0000°E)
Time: 04:44:37
(UTC+00:00)

A-11 Canister half - Pass Details

Date: 24 April 2026
Orbit: 1523 x 1685 km, 47.3° (Epoch: 13 May)

Event Time Altitude Azimuth Distance (km) Brightness Sun altitude
Rises 20:58:24 0° 246° (WSW) 4,740 12.1 -43.6°
Reaches altitude 10° 21:02:02 10° 257° (WSW) 3,778 11.5 -44.5°
Maximum altitude 21:09:51 28° 312° (NW) 2,668 10.5 -46.3°
Drops below altitude 10° 21:17:54 10° 7° (N) 3,875 11.1 -48.2°
Sets 21:21:45 0° 19° (NNE) 4,882 11.7 -49.1°
